DW4063 Weather Reports


Display with metric or nautical units.
time (UTC)temp
F
wind
direction
speed
MPH
gust
MPH
rain 1hr
in
rain 24hr
in
rain mn
in
humidity
%
barometer
mb
20260509011527 63 232 0.0 4.0 0.00 0.00 0.00 54 1006.4
20260509010013 63 250 0.0 4.0 0.00 0.00 0.00 51 1006.2
20260509004506 64 236 1.0 4.0 0.00 0.00 0.00 50 1006.4
20260509003004 65 217 1.0 4.0 0.00 0.00 0.00 48 1006.4
20260509001504 65 220 1.0 3.0 0.00 0.00 0.00 47 1006.5
20260509000006 65 230 0.0 3.0 0.00 0.00 0.00 47 1006.5
20260508233012 66 237 1.0 4.0 0.00 0.00 0.00 45 1006.6
20260508231510 66 196 2.0 6.0 0.00 0.00 0.00 46 1006.6
20260508230009 66 214 3.0 7.0 0.00 0.00 0.00 46 1006.6
20260508224505 67 230 1.0 6.0 0.00 0.00 0.00 45 1006.6
20260508223003 68 95 2.0 8.0 0.00 0.00 0.00 45 1006.8
20260508220017 68 229 1.0 3.0 0.00 0.00 0.00 46 1006.9
20260508213007 68 268 1.0 7.0 0.00 0.04 0.00 45 1007.1
20260508211505 68 109 3.0 6.0 0.00 0.04 0.00 46 1007.1
20260508204522 68 184 1.0 7.0 0.00 0.04 0.00 43 1007.2
20260508203014 67 220 1.0 5.0 0.00 0.04 0.00 45 1007.3
20260508201515 68 215 3.0 6.0 0.00 0.04 0.00 41 1007.7
20260508200007 68 215 0.0 6.0 0.00 0.04 0.00 41 1007.8
20260508194526 68 95 1.0 6.0 0.00 0.04 0.00 46 1008.1
20260508191520 67 197 1.0 4.0 0.00 0.04 0.00 45 1008.5
20260508190034 66 257 0.0 4.0 0.00 0.04 0.00 48 1008.7
20260508184515 65 196 2.0 7.0 0.00 0.04 0.00 48 1008.8
20260508183013 66 238 1.0 4.0 0.00 0.04 0.00 50 1009.0
20260508181508 65 248 2.0 5.0 0.00 0.04 0.00 53 1009.2
20260508180025 64 160 1.0 4.0 0.00 0.04 0.00 54 1009.3
20260508174535 64 194 0.0 6.0 0.00 0.04 0.00 60 1009.5
20260508173021 64 92 2.0 5.0 0.00 0.04 0.00 56 1009.7
20260508171516 63 134 1.0 6.0 0.00 0.04 0.00 60 1010.0
20260508170014 63 253 3.0 7.0 0.00 0.04 0.00 62 1010.1
20260508163039 61 80 0.0 4.0 0.00 0.04 0.00 63 1010.5
20260508161526 61 184 1.0 5.0 0.00 0.04 0.00 64 1010.9
20260508160004 61 161 0.0 3.0 0.00 0.04 0.00 65 1010.9
20260508154521 60 119 1.0 4.0 0.00 0.04 0.00 69 1011.0
20260508153024 59 335 1.0 4.0 0.00 0.04 0.00 68 1011.2
20260508151522 58 221 1.0 4.0 0.00 0.04 0.00 69 1011.3
20260508150011 57 74 1.0 4.0 0.00 0.04 0.00 70 1011.3
20260508144507 56 166 0.0 4.0 0.00 0.04 0.00 72 1011.5
20260508143022 55 221 1.0 4.0 0.00 0.04 0.00 75 1011.6
20260508141521 53 227 0.0 4.0 0.00 0.04 0.00 77 1011.7
20260508140015 52 105 0.0 4.0 0.00 0.04 0.00 79 1011.8
20260508133014 49 79 1.0 3.0 0.00 0.04 0.00 90 1011.6
20260508131510 47 112 0.0 2.0 0.00 0.04 0.00 93 1011.6
20260508130025 46 97 0.0 3.0 0.00 0.04 0.00 94 1011.6
20260508124521 45 101 0.0 4.0 0.00 0.04 0.00 94 1011.6
20260508123024 44 125 0.0 3.0 0.00 0.04 0.00 94 1011.7
20260508120028 42 298 0.0 0.0 0.00 0.04 0.00 94 1011.5
20260508114524 41 298 0.0 0.0 0.00 0.04 0.00 94 1011.7
20260508113026 41 298 0.0 0.0 0.00 0.04 0.00 94 1011.6
20260508111522 40 298 0.0 0.0 0.00 0.04 0.00 94 1011.4
20260508110029 40 298 0.0 0.0 0.00 0.04 0.00 94 1011.3
20260508104517 39 298 0.0 0.0 0.00 0.04 0.00 94 1011.4
20260508103032 38 298 0.0 0.0 0.00 0.04 0.00 94 1011.6
20260508101535 38 298 0.0 0.0 0.00 0.04 0.00 93 1011.5
20260508100011 38 298 0.0 0.0 0.00 0.04 0.00 94 1011.4
20260508094506 37 298 0.0 0.0 0.00 0.04 0.00 93 1011.6
20260508093040 37 298 0.0 0.0 0.00 0.04 0.00 93 1011.7
20260508091524 38 298 0.0 0.0 0.00 0.04 0.00 93 1011.5
20260508090028 38 298 0.0 0.0 0.00 0.04 0.00 93 1011.6
20260508084515 38 298 0.0 0.0 0.00 0.04 0.00 93 1011.7
20260508081509 39 298 0.0 0.0 0.00 0.04 0.00 92 1011.9
20260508080033 39 298 0.0 0.0 0.00 0.04 0.00 92 1011.8
20260508074533 39 298 0.0 0.0 0.00 0.04 0.00 92 1012.0
20260508073022 40 298 0.0 0.0 0.00 0.04 0.00 92 1012.1
20260508071520 40 298 0.0 0.0 0.00 0.04 0.00 92 1012.1
20260508070029 40 298 0.0 0.0 0.00 0.04 0.00 92 1012.3
20260508064527 41 298 0.0 0.0 0.00 0.04 0.00 92 1012.2
20260508063024 41 298 0.0 0.0 0.00 0.04 0.00 92 1012.1
20260508061525 41 298 0.0 1.0 0.00 0.04 0.00 92 1012.2
20260508060022 42 298 0.0 0.0 0.00 0.04 0.00 91 1012.1
20260508054530 42 298 0.0 0.0 0.00 0.04 0.00 91 1012.0
20260508053029 42 298 0.0 0.0 0.00 0.04 0.00 91 1011.9
20260508051527 43 298 0.0 0.0 0.00 0.04 0.00 91 1011.9
20260508050029 43 298 0.0 0.0 0.00 0.04 0.00 91 1011.9
20260508044525 43 298 0.0 0.0 0.00 0.04 0.04 91 1011.7
20260508041533 43 298 0.0 1.0 0.00 0.04 0.04 90 1011.7
20260508040020 44 298 0.0 1.0 0.00 0.04 0.04 91 1011.5
20260508034519 44 310 0.0 0.0 0.00 0.04 0.04 90 1011.4
20260508033018 44 310 0.0 0.0 0.00 0.04 0.04 89 1011.3
20260508031508 44 310 0.0 0.0 0.00 0.04 0.04 89 1011.3
20260508024504 45 310 0.0 0.0 0.00 0.04 0.04 88 1011.2
20260508023035 45 310 0.0 0.0 0.00 0.04 0.04 86 1011.1
20260508021521 46 310 0.0 1.0 0.00 0.04 0.04 86 1010.9
20260508020013 47 310 0.0 0.0 0.00 0.04 0.04 84 1010.8
20260508014509 48 310 0.0 0.0 0.00 0.04 0.04 83 1010.5
20260508013006 49 310 0.0 0.0 0.00 0.04 0.04 82 1010.3